TimeEEST,TemperatureF,Dew PointF,Humidity,Sea Level PressureIn,VisibilityMPH,Wind Direction,Wind SpeedMPH,Gust SpeedMPH,PrecipitationIn,Events,Conditions,WindDirDegrees,DateUTC
12:20 AM,55.4,48.2,77,29.92,6.2,NE,4.6,-,N/A,,Partly Cloudy,40,2012-10-09 21:20:00
12:50 AM,55.4,50.0,82,29.92,-9999.0,Calm,Calm,-,N/A,,Clear,0,2012-10-09 21:50:00
1:20 AM,55.4,50.0,82,29.92,-9999.0,Calm,Calm,-,N/A,,Clear,0,2012-10-09 22:20:00
1:50 AM,55.4,50.0,82,29.92,6.2,Calm,Calm,-,N/A,,Partly Cloudy,0,2012-10-09 22:50:00
2:20 AM,55.4,50.0,82,29.92,6.2,Calm,Calm,-,N/A,,Partly Cloudy,0,2012-10-09 23:20:00
2:50 AM,53.6,48.2,82,29.89,6.2,Calm,Calm,-,N/A,,Partly Cloudy,0,2012-10-09 23:50:00
3:00 AM,54,48,73,29.91,6,Calm,Calm,,,,Scattered Clouds,,2012-10-10 00:00:00
3:20 AM,53.6,48.2,82,29.92,6.2,Variable,2.3,-,N/A,,Partly Cloudy,0,2012-10-10 00:20:00
3:50 AM,53.6,48.2,82,29.92,6.2,Calm,Calm,-,N/A,,Partly Cloudy,0,2012-10-10 00:50:00
4:20 AM,53.6,48.2,82,29.92,6.2,Calm,Calm,-,N/A,,Partly Cloudy,0,2012-10-10 01:20:00
5:20 AM,53.6,48.2,82,29.86,6.2,Calm,Calm,-,N/A,,Partly Cloudy,0,2012-10-10 02:20:00
5:50 AM,51.8,46.4,82,29.89,6.2,Calm,Calm,-,N/A,,Partly Cloudy,0,2012-10-10 02:50:00
6:20 AM,53.6,48.2,82,29.89,6.2,Calm,Calm,-,N/A,,Partly Cloudy,0,2012-10-10 03:20:00
6:50 AM,53.6,48.2,82,29.89,6.2,Calm,Calm,-,N/A,,Partly Cloudy,0,2012-10-10 03:50:00
7:20 AM,53.6,48.2,82,29.89,6.2,Calm,Calm,-,N/A,,Partly Cloudy,0,2012-10-10 04:20:00
7:50 AM,53.6,48.2,82,29.89,6.2,Variable,2.3,-,N/A,,Partly Cloudy,0,2012-10-10 04:50:00
8:20 AM,51.8,48.2,88,29.89,6.2,Variable,2.3,-,N/A,,Partly Cloudy,0,2012-10-10 05:20:00
8:50 AM,53.6,44.6,72,29.92,6.2,Calm,Calm,-,N/A,,Scattered Clouds,0,2012-10-10 05:50:00
9:00 AM,53,45,65,29.93,6,Calm,Calm,,,,Partly Cloudy,,2012-10-10 06:00:00
9:20 AM,55.4,46.4,72,29.92,6.2,Calm,Calm,-,N/A,,Scattered Clouds,0,2012-10-10 06:20:00
9:50 AM,57.2,46.4,67,29.92,6.2,Calm,Calm,-,N/A,,Partly Cloudy,0,2012-10-10 06:50:00
10:20 AM,64.4,53.6,68,29.92,6.2,ENE,8.1,-,N/A,,Scattered Clouds,60,2012-10-10 07:20:00
10:50 AM,66.2,51.8,60,29.92,6.2,ENE,6.9,-,N/A,,Scattered Clouds,60,2012-10-10 07:50:00
11:20 AM,66.2,51.8,60,29.92,6.2,ENE,6.9,-,N/A,,Scattered Clouds,60,2012-10-10 08:20:00
11:50 AM,69.8,50.0,49,29.92,6.2,ENE,8.1,-,N/A,,Scattered Clouds,60,2012-10-10 08:50:00
12:20 PM,69.8,50.0,49,29.92,6.2,East,10.4,-,N/A,,Scattered Clouds,80,2012-10-10 09:20:00
12:50 PM,69.8,50.0,49,29.89,6.2,ENE,8.1,-,N/A,,Scattered Clouds,60,2012-10-10 09:50:00
1:50 PM,71.6,50.0,46,29.89,6.2,ENE,9.2,-,N/A,,Scattered Clouds,60,2012-10-10 10:50:00
2:20 PM,71.6,50.0,46,29.89,6.2,East,9.2,-,N/A,,Mostly Cloudy,100,2012-10-10 11:20:00
2:50 PM,71.6,46.4,41,29.89,6.2,East,9.2,-,N/A,,Scattered Clouds,80,2012-10-10 11:50:00
3:00 PM,72,47,30,29.90,6,East,9.2,,,,Scattered Clouds,80,2012-10-10 12:00:00
3:20 PM,71.6,46.4,41,29.89,6.2,East,9.2,-,N/A,,Scattered Clouds,80,2012-10-10 12:20:00
3:50 PM,71.6,53.6,53,29.89,6.2,East,8.1,-,N/A,,Mostly Cloudy,100,2012-10-10 12:50:00
4:20 PM,71.6,53.6,53,29.89,6.2,East,8.1,-,N/A,,Mostly Cloudy,100,2012-10-10 13:20:00
4:50 PM,71.6,57.2,60,29.86,6.2,SE,4.6,-,N/A,,Mostly Cloudy,130,2012-10-10 13:50:00
5:20 PM,69.8,57.2,64,29.86,6.2,SE,4.6,-,N/A,,Mostly Cloudy,130,2012-10-10 14:20:00
5:50 PM,69.8,50.0,49,29.86,6.2,ESE,4.6,-,N/A,,Mostly Cloudy,120,2012-10-10 14:50:00
6:50 PM,68.0,51.8,56,29.86,6.2,Calm,Calm,-,N/A,,Mostly Cloudy,0,2012-10-10 15:50:00
7:20 PM,68.0,51.8,56,29.86,6.2,Calm,Calm,-,N/A,,Mostly Cloudy,0,2012-10-10 16:20:00
7:50 PM,66.2,53.6,64,29.86,6.2,Calm,Calm,-,N/A,,Mostly Cloudy,0,2012-10-10 16:50:00
8:20 PM,66.2,53.6,64,29.86,6.2,Calm,Calm,-,N/A,,Mostly Cloudy,0,2012-10-10 17:20:00
8:50 PM,64.4,50.0,59,29.89,6.2,NE,4.6,-,N/A,,Mostly Cloudy,50,2012-10-10 17:50:00
9:00 PM,65,50,49,29.89,6,NE,4.6,,,,Scattered Clouds,50,2012-10-10 18:00:00
9:20 PM,64.4,50.0,59,29.89,6.2,NE,4.6,-,N/A,,Mostly Cloudy,50,2012-10-10 18:20:00
9:50 PM,64.4,50.0,59,29.89,6.2,Calm,Calm,-,N/A,,Mostly Cloudy,0,2012-10-10 18:50:00
10:20 PM,62.6,50.0,63,29.89,6.2,Calm,Calm,-,N/A,,Mostly Cloudy,0,2012-10-10 19:20:00
10:50 PM,62.6,51.8,68,29.89,6.2,North,3.5,-,N/A,,Mostly Cloudy,350,2012-10-10 19:50:00
11:20 PM,62.6,51.8,68,29.89,6.2,North,3.5,-,N/A,,Mostly Cloudy,350,2012-10-10 20:20:00
11:50 PM,60.8,51.8,72,29.89,6.2,North,3.5,-,N/A,,Mostly Cloudy,350,2012-10-10 20:50:00